WAT1417 KSBA-KLGB

Flight info

Callsign WAT1417
Flight time 0h 42m
Altitude 13000
Route KWANG6 HENER VTU V208 SXC SLI
Aircraft BE60/L-SDFGRY/C

Departure

Time 2026-05-05 01:54
Airport Santa Barbara Municipal Airport (KSBA)

Arrival

Time 2026-05-05 02:36
Airport Long Beach International Airport (KLGB)
Time Latitude Longitude Altitude Speed Heading
2026-05-05 01:40 34.42571 -119.83697 17 ft 0 kts 99°
2026-05-05 01:49 34.42569 -119.83679 17 ft 2 kts 61°
2026-05-05 01:49 34.42592 -119.83669 17 ft 3 kts 12°
2026-05-05 01:50 34.42609 -119.83664 17 ft 0 kts 10°
2026-05-05 01:50 34.42631 -119.83659 17 ft 8 kts 14°
2026-05-05 01:51 34.42677 -119.83605 15 ft 10 kts 81°
2026-05-05 01:51 34.42679 -119.83522 15 ft 10 kts 89°
2026-05-05 01:51 34.42701 -119.83461 14 ft 7 kts
2026-05-05 01:51 34.42705 -119.83461 14 ft 0 kts
2026-05-05 01:52 34.42714 -119.83461 14 ft 6 kts 360°
2026-05-05 01:52 34.42777 -119.83478 14 ft 10 kts 322°
2026-05-05 01:53 34.42793 -119.83526 13 ft 2 kts 269°
2026-05-05 01:53 34.42786 -119.83918 24 ft 82 kts 268°
2026-05-05 01:53 34.42799 -119.84777 210 ft 119 kts 269°
2026-05-05 01:53 34.42805 -119.85910 497 ft 144 kts 269°
2026-05-05 01:54 34.42487 -119.87071 726 ft 156 kts 230°
2026-05-05 01:54 34.41483 -119.87623 934 ft 169 kts 184°
2026-05-05 01:54 34.40373 -119.87099 1162 ft 183 kts 140°
2026-05-05 01:54 34.39783 -119.85733 1428 ft 190 kts 98°
2026-05-05 01:55 34.39890 -119.84137 1690 ft 191 kts 83°
2026-05-05 01:55 34.39977 -119.82525 1890 ft 192 kts 86°
2026-05-05 01:55 34.40103 -119.80929 2113 ft 189 kts 84°
2026-05-05 01:55 34.40269 -119.79362 2373 ft 188 kts 83°
2026-05-05 01:56 34.40441 -119.77792 2629 ft 188 kts 83°
2026-05-05 01:56 34.40495 -119.76216 2903 ft 188 kts 101°
2026-05-05 01:56 34.40037 -119.74736 3174 ft 189 kts 118°
2026-05-05 01:56 34.39427 -119.73326 3452 ft 187 kts 118°
2026-05-05 01:57 34.38835 -119.71940 3807 ft 184 kts 117°
2026-05-05 01:57 34.38271 -119.70561 4160 ft 182 kts 116°
2026-05-05 01:57 34.37724 -119.69184 4515 ft 181 kts 116°
2026-05-05 01:57 34.37190 -119.67807 4872 ft 181 kts 115°
2026-05-05 01:58 34.36661 -119.66421 5231 ft 182 kts 115°
2026-05-05 01:58 34.36127 -119.65035 5600 ft 181 kts 115°
2026-05-05 01:58 34.35600 -119.63663 5992 ft 179 kts 115°
2026-05-05 01:58 34.35077 -119.62299 6375 ft 178 kts 115°
2026-05-05 01:59 34.34558 -119.60944 6745 ft 177 kts 115°
2026-05-05 01:59 34.34040 -119.59589 7115 ft 177 kts 115°
2026-05-05 01:59 34.33524 -119.58232 7491 ft 178 kts 115°
2026-05-05 01:59 34.33003 -119.56870 7870 ft 179 kts 115°
2026-05-05 02:00 34.32480 -119.55503 8253 ft 180 kts 115°
2026-05-05 02:00 34.31955 -119.54130 8640 ft 180 kts 115°
2026-05-05 02:00 34.31428 -119.52753 9020 ft 180 kts 115°
2026-05-05 02:00 34.31011 -119.51327 9415 ft 181 kts 99°
2026-05-05 02:01 34.31054 -119.49811 9822 ft 181 kts 82°
2026-05-05 02:01 34.31194 -119.48292 10194 ft 183 kts 85°
2026-05-05 02:01 34.31297 -119.46754 10559 ft 184 kts 86°
2026-05-05 02:01 34.31404 -119.45207 10926 ft 185 kts 85°
2026-05-05 02:02 34.31517 -119.43642 11296 ft 188 kts 85°
2026-05-05 02:02 34.31636 -119.42062 11668 ft 190 kts 86°
2026-05-05 02:02 34.31760 -119.40464 12057 ft 192 kts 86°
2026-05-05 02:02 34.31884 -119.38853 12436 ft 193 kts 86°
2026-05-05 02:03 34.32009 -119.37228 12825 ft 195 kts 86°
2026-05-05 02:03 34.32138 -119.35537 12968 ft 211 kts 86°
2026-05-05 02:03 34.32274 -119.33707 12990 ft 225 kts 86°
2026-05-05 02:03 34.32419 -119.31780 12992 ft 234 kts 86°
2026-05-05 02:04 34.32568 -119.29804 12992 ft 235 kts 86°
2026-05-05 02:04 34.32717 -119.27849 12995 ft 232 kts 86°
2026-05-05 02:04 34.32864 -119.25920 12993 ft 229 kts 86°
2026-05-05 02:04 34.32834 -119.24014 12985 ft 225 kts 106°
2026-05-05 02:05 34.32206 -119.22333 12993 ft 217 kts 130°
2026-05-05 02:05 34.31119 -119.21120 12998 ft 211 kts 151°
2026-05-05 02:05 34.29884 -119.20143 12992 ft 213 kts 150°
2026-05-05 02:05 34.28655 -119.19123 13004 ft 216 kts 149°
2026-05-05 02:06 34.27414 -119.18085 13002 ft 218 kts 149°
2026-05-05 02:06 34.26165 -119.17043 13001 ft 219 kts 150°
2026-05-05 02:06 34.24909 -119.15996 13003 ft 220 kts 150°
2026-05-05 02:06 34.23647 -119.14951 13000 ft 220 kts 150°
2026-05-05 02:07 34.22380 -119.13905 12999 ft 221 kts 150°
2026-05-05 02:07 34.21113 -119.12859 12999 ft 221 kts 150°
2026-05-05 02:07 34.19843 -119.11813 12999 ft 221 kts 150°
2026-05-05 02:07 34.18579 -119.10771 13000 ft 221 kts 150°
2026-05-05 02:08 34.17303 -119.09721 12999 ft 221 kts 150°
2026-05-05 02:08 34.16034 -119.08675 13009 ft 221 kts 150°
2026-05-05 02:08 34.14764 -119.07630 13009 ft 221 kts 150°
2026-05-05 02:08 34.13493 -119.06584 13009 ft 221 kts 150°
2026-05-05 02:09 34.12222 -119.05539 13001 ft 221 kts 150°
2026-05-05 02:09 34.10949 -119.04491 13000 ft 221 kts 150°
2026-05-05 02:09 34.09706 -119.03438 12998 ft 222 kts 149°
2026-05-05 02:09 34.08451 -119.02357 12999 ft 222 kts 149°
2026-05-05 02:10 34.07182 -119.01256 12987 ft 222 kts 149°
2026-05-05 02:10 34.05929 -119.00168 12981 ft 222 kts 150°
2026-05-05 02:10 34.04691 -118.99100 12981 ft 222 kts 150°
2026-05-05 02:10 34.03436 -118.98019 12983 ft 222 kts 150°
2026-05-05 02:11 34.02178 -118.96939 12985 ft 222 kts 150°
2026-05-05 02:11 34.00921 -118.95860 12985 ft 222 kts 150°
2026-05-05 02:11 33.99661 -118.94784 12983 ft 222 kts 150°
2026-05-05 02:11 33.98405 -118.93708 12983 ft 221 kts 150°
2026-05-05 02:12 33.97134 -118.92618 12981 ft 221 kts 150°
2026-05-05 02:12 33.94641 -118.90482 12981 ft 221 kts 150°
2026-05-05 02:12 33.93389 -118.89409 12981 ft 221 kts 150°
2026-05-05 02:13 33.92135 -118.88336 12983 ft 221 kts 150°
2026-05-05 02:13 33.90879 -118.87263 12982 ft 221 kts 150°
2026-05-05 02:13 33.89624 -118.86190 12981 ft 221 kts 150°
2026-05-05 02:13 33.88369 -118.85118 12982 ft 221 kts 150°
2026-05-05 02:14 33.87116 -118.84046 12982 ft 221 kts 150°
2026-05-05 02:14 33.85860 -118.82974 12987 ft 221 kts 150°
2026-05-05 02:14 33.84604 -118.81903 12985 ft 221 kts 150°
2026-05-05 02:14 33.83349 -118.80833 12984 ft 221 kts 150°
2026-05-05 02:15 33.82095 -118.79762 12989 ft 221 kts 150°
2026-05-05 02:15 33.80838 -118.78691 12988 ft 221 kts 150°
2026-05-05 02:15 33.79583 -118.77621 12992 ft 221 kts 150°
2026-05-05 02:15 33.78325 -118.76550 12989 ft 221 kts 150°
2026-05-05 02:16 33.77068 -118.75479 12987 ft 221 kts 150°
2026-05-05 02:16 33.75810 -118.74409 12990 ft 221 kts 150°
2026-05-05 02:16 33.74553 -118.73338 12990 ft 221 kts 150°
2026-05-05 02:16 33.73296 -118.72269 12990 ft 221 kts 150°
2026-05-05 02:17 33.72040 -118.71201 12992 ft 221 kts 150°
2026-05-05 02:17 33.70783 -118.70133 12989 ft 221 kts 150°
2026-05-05 02:17 33.69526 -118.69064 12990 ft 221 kts 150°
2026-05-05 02:17 33.68272 -118.67989 12985 ft 221 kts 151°
2026-05-05 02:18 33.67003 -118.66913 12850 ft 227 kts 151°
2026-05-05 02:18 33.65680 -118.65814 12592 ft 234 kts 151°
2026-05-05 02:18 33.64338 -118.64689 12336 ft 232 kts 150°
2026-05-05 02:18 33.63064 -118.63592 12078 ft 220 kts 150°
2026-05-05 02:19 33.61846 -118.62545 11819 ft 211 kts 150°
2026-05-05 02:19 33.60661 -118.61545 11565 ft 206 kts 151°
2026-05-05 02:19 33.59500 -118.60564 11317 ft 203 kts 150°
2026-05-05 02:19 33.58363 -118.59586 11064 ft 200 kts 150°
2026-05-05 02:20 33.57237 -118.58627 10834 ft 196 kts 150°
2026-05-05 02:20 33.56135 -118.57693 10597 ft 192 kts 150°
2026-05-05 02:20 33.55056 -118.56783 10354 ft 188 kts 150°
2026-05-05 02:20 33.53994 -118.55885 10114 ft 184 kts 150°
2026-05-05 02:21 33.52974 -118.55020 9873 ft 180 kts 150°
2026-05-05 02:21 33.51957 -118.54161 9603 ft 178 kts 150°
2026-05-05 02:21 33.50950 -118.53310 9339 ft 176 kts 150°
2026-05-05 02:21 33.49950 -118.52466 9075 ft 176 kts 151°
2026-05-05 02:22 33.48950 -118.51624 8814 ft 176 kts 150°
2026-05-05 02:22 33.47948 -118.50779 8558 ft 176 kts 150°
2026-05-05 02:22 33.46949 -118.49937 8301 ft 176 kts 150°
2026-05-05 02:22 33.45949 -118.49093 8051 ft 176 kts 150°
2026-05-05 02:23 33.44947 -118.48248 7798 ft 176 kts 149°
2026-05-05 02:23 33.43943 -118.47398 7546 ft 177 kts 149°
2026-05-05 02:23 33.42941 -118.46548 7302 ft 177 kts 149°
2026-05-05 02:23 33.41933 -118.45701 7063 ft 177 kts 149°
2026-05-05 02:24 33.41027 -118.44717 6815 ft 176 kts 131°
2026-05-05 02:24 33.40433 -118.43443 6564 ft 176 kts 111°
2026-05-05 02:24 33.40208 -118.42012 6322 ft 176 kts 91°
2026-05-05 02:24 33.40366 -118.40575 6052 ft 174 kts 72°
2026-05-05 02:25 33.40879 -118.39285 5793 ft 170 kts 53°
2026-05-05 02:25 33.41682 -118.38274 5516 ft 167 kts 33°
2026-05-05 02:25 33.42630 -118.37483 5269 ft 166 kts 33°
2026-05-05 02:25 33.43553 -118.36659 5026 ft 165 kts 34°
2026-05-05 02:26 33.44469 -118.35830 4771 ft 165 kts 34°
2026-05-05 02:26 33.45382 -118.34996 4509 ft 165 kts 34°
2026-05-05 02:26 33.46297 -118.34174 4252 ft 164 kts 34°
2026-05-05 02:26 33.47209 -118.33355 3994 ft 164 kts 33°
2026-05-05 02:27 33.48123 -118.32536 3740 ft 164 kts 32°
2026-05-05 02:27 33.49044 -118.31743 3486 ft 163 kts 33°
2026-05-05 02:27 33.49955 -118.30942 3230 ft 163 kts 34°
2026-05-05 02:27 33.50858 -118.30118 2980 ft 163 kts 35°
2026-05-05 02:28 33.51766 -118.29293 2729 ft 164 kts 34°
2026-05-05 02:28 33.52666 -118.28485 2533 ft 162 kts 34°
2026-05-05 02:28 33.53608 -118.27643 2519 ft 176 kts 35°
2026-05-05 02:28 33.54615 -118.26739 2512 ft 185 kts 34°
2026-05-05 02:29 33.55656 -118.25807 2497 ft 189 kts 34°
2026-05-05 02:29 33.56713 -118.24863 2485 ft 189 kts 34°
2026-05-05 02:29 33.57776 -118.23930 2479 ft 189 kts 34°
2026-05-05 02:29 33.58842 -118.23007 2479 ft 189 kts 34°
2026-05-05 02:30 33.59911 -118.22089 2480 ft 189 kts 33°
2026-05-05 02:30 33.60980 -118.21168 2480 ft 189 kts 33°
2026-05-05 02:30 33.62130 -118.20435 2482 ft 187 kts 21°
2026-05-05 02:30 33.63336 -118.19838 2485 ft 188 kts 19°
2026-05-05 02:31 33.64542 -118.19212 2476 ft 189 kts 21°
2026-05-05 02:31 33.65744 -118.18574 2472 ft 189 kts 21°
2026-05-05 02:31 33.66943 -118.17928 2473 ft 189 kts 21°
2026-05-05 02:31 33.68141 -118.17280 2466 ft 189 kts 21°
2026-05-05 02:32 33.69340 -118.16632 2466 ft 189 kts 21°
2026-05-05 02:32 33.70507 -118.15994 2466 ft 176 kts 21°
2026-05-05 02:32 33.71569 -118.15411 2464 ft 161 kts 21°
2026-05-05 02:32 33.72565 -118.14859 2425 ft 156 kts 21°
2026-05-05 02:33 33.73571 -118.14389 2323 ft 154 kts 12°
2026-05-05 02:33 33.74606 -118.14102 2220 ft 151 kts
2026-05-05 02:33 33.75625 -118.13864 2132 ft 147 kts
2026-05-05 02:33 33.76624 -118.13653 2054 ft 145 kts
2026-05-05 02:34 33.77557 -118.13462 2008 ft 124 kts
2026-05-05 02:34 33.78351 -118.13268 1760 ft 110 kts
2026-05-05 02:34 33.79045 -118.13105 1392 ft 99 kts 358°
2026-05-05 02:34 33.79706 -118.13203 970 ft 93 kts 330°
2026-05-05 02:35 33.80274 -118.13564 575 ft 93 kts 328°
2026-05-05 02:35 33.80910 -118.13914 370 ft 108 kts 322°
2026-05-05 02:35 33.81363 -118.14508 245 ft 88 kts 278°
2026-05-05 02:35 33.81387 -118.15162 45 ft 66 kts 263°
2026-05-05 02:36 33.81372 -118.15433 35 ft 10 kts 173°
2026-05-05 02:36 33.81324 -118.15462 35 ft 10 kts 176°
2026-05-05 02:36 33.81310 -118.15434 35 ft 0 kts 91°